Wind_Speed
1 0 1 4 6 6 7 6 6 4 5 4 5 4 2 1 3 5 5 6 2 3 2 4 3 4 6 7 8 9 8 4 10 14 18 22 25 28 30 31 33 37 39 39 39 38 36 34 32 30 28 25 23 20 18 16 14 12 11 11 11 12 14 14 12 11 11 10 9 9 7 6 6 6 4 3 1 0 3 6 8 10 11 11 10 10
2 0 5 8 9 7 5 4 5 4 5 4 4 3 2 0 3 4 4 6 3 3 2 4 0 3 6 6 7 7 7 6 6 10 18 26 29 31 33 34 34 34 34 36 39 38 37 36 34 32 30 28 26 23 21 19 15 14 13 12 12 13 14 13 12 12 11 9 8 8 7 7 7 7 5 4 4 3 1 2 5 8 10 11 12 12
3 4 10 9 6 3 2 3 6 5 5 4 2 2 2 2 3 6 5 6 4 3 3 4 3 4 7 6 7 7 6 8 9 8 12 20 25 27 31 33 31 30 30 35 40 40 39 38 36 34 32 31 28 24 22 20 17 16 15 14 14 13 13 14 13 13 11 9 9 8 7 6 6 6 5 5 5 6 5 4 1 1 5 8 10 12
2 6 8 4 6 5 1 2 6 4 3 3 3 2 2 3 1 3 5 6 4 3 1 0 2 5 7 5 6 8 8 10 12 12 11 14 20 25 31 34 32 32 33 36 41 42 41 40 38 36 35 33 29 27 25 23 21 19 17 16 16 14 13 14 15 14 12 10 11 9 7 6 4 4 4 5 6 7 7 7 6 4 2 2 5 8
6 9 4 5 6 6 3 1 4 5 1 2 2 4 3 3 3 4 4 6 5 5 3 4 4 5 4 5 6 5 5 7 11 13 14 12 15 22 30 33 33 35 38 40 43 44 43 41 40 38 37 35 32 30 28 26 25 22 18 18 17 16 15 15 15 15 14 13 12 10 9 8 5 5 4 3 6 8 8 8 8 7 7 5 2 2
8 8 2 2 3 5 6 4 3 6 2 4 3 6 6 5 4 2 3 5 5 4 4 4 2 5 4 4 6 5 5 6 7 8 14 17 13 16 24 31 34 35 38 41 44 45 44 42 42 40 39 37 35 33 31 29 27 22 19 19 19 18 16 16 16 16 15 14 12 10 9 8 5 5 6 3 5 6 7 8 8 8 9 9 7 5
5 5 2 2 4 4 5 5 5 6 4 2 5 7 6 5 5 2 1 3 2 3 4 3 2 5 5 4 7 6 5 8 8 6 12 21 19 15 20 27 34 38 40 40 41 43 44 43 43 42 41 39 38 36 33 31 27 23 21 22 21 20 18 17 17 18 17 15 13 8 6 5 4 4 5 3 4 5 6 7 7 8 8 9 9 9
3 5 5 1 2 4 4 5 5 7 7 3 5 6 7 6 6 5 5 4 2 3 3 5 3 2 4 5 7 5 5 8 9 9 11 18 25 22 20 25 32 38 42 42 42 43 44 44 44 43 42 41 40 37 35 33 29 25 24 23 23 22 19 18 18 19 18 16 14 10 7 7 5 5 5 3 2 3 4 5 6 6 7 8 9 10
1 3 4 2 3 3 5 6 7 8 4 6 5 6 5 4 6 5 6 4 1 1 3 6 2 1 4 7 6 4 4 7 9 11 10 15 25 23 19 22 28 35 39 42 44 44 44 44 44 43 42 41 40 38 36 34 31 26 25 25 24 24 22 20 19 20 20 18 14 12 10 9 8 7 7 6 3 2 2 3 4 4 5 6 7 8
3 5 6 5 4 4 6 5 8 10 4 4 5 5 3 4 5 4 5 4 2 3 4 6 0 1 4 7 5 3 2 7 8 9 9 15 24 23 20 21 25 31 37 41 44 44 43 42 43 43 42 41 41 40 38 35 32 28 27 27 26 25 24 22 20 20 21 20 17 15 13 11 10 10 9 7 5 4 3 3 2 3 3 4 6 6
5 4 3 4 5 6 6 4 5 8 5 4 5 5 5 5 4 3 3 3 3 2 5 6 4 4 2 6 4 2 4 5 5 8 9 14 23 25 24 21 22 29 35 40 43 44 42 41 42 43 42 42 41 41 40 36 33 30 29 29 28 26 25 23 23 22 22 22 20 18 15 13 11 11 10 8 6 6 5 4 4 3 3 3 4 5
6 2 2 3 6 4 4 1 2 1 3 5 5 4 2 3 4 4 4 3 1 4 6 6 4 5 1 5 5 5 6 5 5 8 9 13 21 25 23 16 17 25 32 38 41 41 40 40 42 42 42 42 41 41 40 38 36 32 30 30 29 28 26 25 24 24 23 23 22 20 17 14 12 11 10 8 7 7 5 5 6 5 4 3 3 4
4 4 3 4 4 4 4 1 3 6 5 5 4 5 4 1 3 2 3 1 2 5 4 4 2 2 3 7 7 7 8 7 6 6 8 11 18 23 21 12 9 18 26 34 37 38 38 39 40 40 40 40 40 41 41 39 38 35 32 32 31 30 28 26 25 25 26 25 24 22 19 16 14 13 11 9 8 8 7 7 8 7 5 4 4 3
3 5 5 3 4 3 6 4 1 2 1 3 4 4 3 2 2 2 3 1 2 4 3 3 2 2 3 4 5 7 8 7 7 8 11 15 20 24 23 13 1 11 17 24 31 34 35 35 37 37 38 37 38 39 40 40 39 38 36 34 34 32 29 27 26 26 26 26 25 23 21 18 16 15 14 12 10 9 10 10 9 8 7 6 5 4
1 4 3 1 3 1 4 5 6 5 3 3 3 5 4 4 3 3 3 2 3 3 3 3 2 2 2 2 5 7 6 7 9 13 22 27 30 32 31 25 14 5 10 15 22 27 30 31 32 34 34 33 34 36 39 40 39 39 38 37 36 34 32 29 27 27 27 26 26 24 21 19 17 16 15 13 11 11 11 11 11 10 9 8 7 6
2 4 6 3 2 1 3 4 6 6 2 3 2 5 2 4 5 2 2 4 3 1 2 2 2 3 4 2 6 6 5 8 10 17 25 25 28 36 35 32 29 19 7 6 14 21 26 30 31 32 32 31 31 34 37 39 39 40 40 39 37 36 33 31 29 28 26 26 26 25 22 20 18 17 17 15 13 12 12 12 12 11 10 9 9 8
1 5 6 3 3 1 1 2 2 4 2 1 1 2 3 3 6 4 1 0 3 1 3 1 2 5 2 2 6 7 7 9 10 16 20 19 24 32 30 29 33 32 25 16 5 5 15 24 29 32 33 32 33 34 34 35 36 37 38 39 39 38 35 33 31 29 27 26 27 26 23 21 20 19 18 16 14 13 13 13 13 12 12 11 11 10
3 3 6 0 1 3 3 6 5 3 3 4 2 3 2 1 4 4 1 3 4 1 3 1 2 4 2 1 5 8 9 9 9 9 13 17 22 24 23 25 29 31 32 29 24 18 8 4 17 28 33 34 35 35 34 34 35 36 37 39 39 38 37 34 32 30 28 27 27 26 25 23 21 20 19 17 14 14 14 15 15 14 14 13 12 11
3 2 7 2 3 4 4 7 3 7 5 4 4 2 2 1 1 1 1 1 0 2 3 3 3 2 3 4 1 4 5 5 7 8 8 12 16 17 19 24 27 28 29 28 28 27 23 18 7 9 21 30 34 36 36 37 38 39 39 39 39 39 37 35 33 31 29 28 26 26 26 24 23 22 21 19 15 15 16 16 16 16 16 15 14 13
2 2 5 4 2 3 5 3 2 3 6 4 2 2 2 2 3 0 1 2 2 2 2 3 3 2 5 5 5 4 3 2 3 5 5 6 11 14 18 22 26 27 26 25 25 24 24 23 20 15 7 12 22 31 35 36 37 40 41 41 41 40 39 37 35 33 31 29 27 26 26 26 25 25 24 21 17 17 17 17 18 17 17 16 15 14
2 2 3 5 4 2 2 0 4 3 0 2 3 3 2 1 2 0 0 2 3 2 2 1 2 4 5 3 6 6 4 4 4 4 3 4 9 12 14 18 23 25 24 23 23 22 21 21 20 20 18 14 10 18 28 33 35 37 40 42 42 42 42 40 38 35 33 30 28 28 27 27 27 27 26 23 20 18 18 18 18 18 18 17 16 15
1 2 2 3 4 1 3 4 4 5 4 3 2 1 2 2 2 1 2 1 1 2 3 3 2 5 5 3 3 5 5 5 4 4 4 7 12 14 13 16 20 23 23 22 21 19 19 19 19 18 17 16 13 9 14 22 29 34 38 40 41 42 43 42 40 37 35 33 31 30 28 27 28 28 29 26 22 20 19 19 19 19 19 18 17 15
2 3 2 2 3 3 6 7 4 1 4 6 2 2 3 3 4 4 3 3 0 1 2 4 2 5 5 4 3 4 4 2 1 4 7 10 14 16 18 19 21 23 23 21 19 17 16 15 15 15 14 14 13 11 10 12 18 26 32 36 39 41 43 44 43 39 37 36 35 34 31 29 29 30 30 28 24 22 21 20 19 19 19 18 17 16
2 2 2 2 4 4 5 5 3 3 6 7 2 2 3 2 3 5 5 3 1 2 1 2 2 4 5 5 4 4 6 8 11 12 12 13 15 18 19 20 20 21 20 19 17 15 14 13 13 14 14 14 13 11 10 10 12 17 24 30 35 39 42 44 43 41 39 36 35 37 36 33 32 32 32 29 25 23 22 20 19 19 18 18 17 17
1 0 2 2 3 5 7 5 4 5 3 4 1 1 2 3 5 3 2 3 1 3 4 4 4 5 4 3 6 7 9 11 12 14 13 13 15 17 17 17 17 17 17 17 16 14 13 13 14 14 13 13 12 11 10 9 11 13 18 23 29 34 39 43 43 41 41 39 36 37 39 37 36 34 33 30 26 23 22 20 19 18 18 18 18 17
1 2 3 3 2 3 2 3 3 3 1 1 2 2 1 2 4 2 1 3 1 3 3 4 4 5 3 2 5 5 5 7 9 10 11 11 13 14 15 15 15 16 16 16 16 14 13 13 13 12 11 11 11 11 12 12 12 13 15 18 22 28 33 38 40 40 42 43 39 39 40 39 36 35 34 30 25 23 21 20 19 18 18 18 18 18
2 1 2 5 5 6 6 7 6 3 1 2 2 3 3 1 3 4 3 2 3 3 3 5 5 6 6 2 4 5 4 4 5 6 8 10 12 13 14 14 14 15 15 14 14 13 13 12 12 13 13 13 13 13 13 15 15 15 15 14 16 23 29 34 37 39 43 45 43 42 43 41 35 33 34 31 26 23 21 19 18 17 18 18 18 17
4 2 2 4 5 7 7 7 6 4 4 5 4 4 5 4 4 5 3 4 4 3 5 7 5 5 6 2 2 5 1 1 2 2 5 7 11 12 12 12 13 14 14 14 14 14 14 14 14 15 15 16 16 16 16 16 15 15 15 15 14 17 24 31 35 38 41 45 46 46 45 43 37 33 33 32 28 24 21 20 18 18 18 18 17 17
4 2 3 3 5 6 6 6 6 4 4 5 5 6 6 7 6 6 6 6 6 6 8 7 6 7 5 2 3 5 2 4 4 1 2 4 7 9 9 10 12 13 13 14 14 14 15 15 16 16 17 17 17 17 17 17 17 16 15 15 14 14 16 22 31 37 40 41 43 45 43 42 39 35 34 34 30 25 22 20 19 19 19 18 17 16
2 2 2 1 4 6 6 7 6 5 5 4 6 8 8 8 9 8 7 7 8 9 10 6 6 8 5 4 4 3 1 2 2 1 3 5 6 7 9 10 11 11 12 12 13 13 13 14 15 16 16 17 17 18 17 17 18 17 16 15 14 14 14 16 21 30 38 41 42 43 43 44 46 41 37 35 31 26 23 21 20 19 18 17 16 14
2 1 2 3 3 6 6 5 4 5 7 7 7 7 6 7 8 6 5 4 5 8 8 4 4 6 5 5 4 0 1 2 3 5 6 6 7 7 8 9 10 11 11 12 12 13 13 14 15 16 17 18 18 19 18 18 18 18 17 16 16 16 16 15 16 21 29 37 41 42 43 47 49 44 37 34 30 27 25 23 22 20 18 16 15 13
1 1 2 4 2 6 4 4 6 5 5 8 8 6 6 7 6 5 4 5 6 6 4 2 3 5 5 4 3 1 2 3 4 5 5 5 5 5 6 8 10 12 13 13 14 15 15 16 17 18 19 20 21 22 22 22 22 20 19 17 18 18 18 18 17 17 21 29 36 39 42 44 44 38 34 34 33 31 29 26 23 21 19 18 16 15
3 2 1 2 3 7 5 5 6 4 5 10 8 9 10 9 7 4 3 5 7 7 5 4 6 6 5 5 4 3 4 4 5 5 4 4 2 2 6 10 12 14 15 16 17 18 19 19 20 21 22 23 24 25 25 26 26 24 22 20 20 20 20 21 20 18 20 26 32 35 38 41 39 35 35 36 34 33 30 26 23 22 20 18 17 16
4 4 3 3 3 7 5 2 1 2 7 9 6 9 12 10 10 8 5 7 7 4 4 4 4 4 5 6 6 6 7 6 5 5 5 6 4 1 8 11 13 16 17 18 19 20 21 22 23 24 24 25 26 27 27 28 28 28 26 24 22 22 23 23 21 19 20 24 30 33 35 39 39 37 39 39 35 32 29 25 22 20 18 17 16 16
3 4 3 2 3 4 2 2 1 6 7 4 1 2 5 7 9 8 4 4 4 3 3 4 5 6 7 8 8 8 7 6 6 7 8 9 8 4 10 12 14 17 18 19 20 20 22 23 24 25 25 26 27 27 27 28 28 29 30 28 25 23 23 24 22 20 20 23 28 33 36 37 36 38 40 39 35 31 27 24 22 19 17 16 16 16
5 3 2 2 2 2 0 3 5 6 4 4 4 4 3 1 4 4 1 5 3 4 5 5 4 5 6 8 9 7 7 8 10 9 9 11 10 8 13 15 17 19 20 21 22 22 23 23 24 25 26 26 27 27 27 27 27 29 30 30 28 24 22 24 23 21 20 22 26 32 36 38 37 38 39 37 33 29 26 22 20 18 16 17 17 16
5 3 2 2 3 2 3 4 3 4 6 6 4 3 1 1 1 1 3 5 5 2 3 4 3 5 5 8 9 8 7 7 8 7 8 9 10 12 16 19 21 22 23 23 24 25 26 26 25 26 26 27 28 29 29 29 29 30 30 31 31 27 23 24 24 22 20 22 25 29 35 38 38 38 38 34 30 28 23 18 16 16 16 17 17 15
2 4 4 3 2 2 3 4 3 3 6 5 4 5 3 4 7 6 4 1 4 3 2 4 4 5 7 9 9 7 4 4 4 6 6 8 12 16 20 24 25 26 26 26 27 28 29 29 28 28 29 30 31 31 31 32 32 32 32 31 31 30 26 25 25 24 22 23 26 29 33 35 36 36 35 31 29 26 19 14 14 16 16 16 15 13
3 0 3 3 1 1 3 4 3 3 5 4 4 8 9 12 11 4 4 0 4 5 5 6 6 8 9 9 7 4 2 4 4 7 12 15 18 21 25 28 29 29 30 30 29 30 30 30 31 31 32 34 34 33 32 34 35 35 34 32 31 31 30 27 26 24 23 25 27 28 31 33 33 34 34 32 30 24 16 14 16 17 15 14 12 10
5 4 2 2 3 2 2 3 3 2 2 2 4 8 12 15 11 2 2 3 6 8 9 8 10 10 9 8 6 2 1 5 8 13 19 21 24 27 28 30 31 31 32 32 31 30 30 30 32 34 36 37 37 36 34 35 36 37 36 33 31 32 32 29 26 24 24 27 28 27 29 31 32 34 35 33 26 19 15 17 18 15 13 11 10 8
3 3 2 1 2 2 2 3 3 2 2 3 4 8 12 12 6 3 3 5 6 11 12 8 9 10 10 10 9 6 10 15 19 23 25 25 28 30 30 31 32 32 32 32 31 30 30 32 35 37 38 39 39 38 36 35 35 37 36 33 31 32 32 28 24 22 24 29 29 28 29 31 33 35 35 29 21 18 19 19 17 13 10 8 7 7
2 2 2 1 0 1 2 2 2 2 2 3 5 7 7 5 1 2 5 9 10 12 12 10 11 13 13 14 14 15 19 23 26 28 29 29 31 32 32 32 32 32 32 31 31 31 33 36 39 41 42 41 39 38 35 32 32 34 33 32 33 32 29 25 22 20 24 30 31 31 32 34 35 35 31 26 22 21 19 16 12 9 6 4 4 5
1 2 3 2 1 1 1 0 2 2 2 3 5 5 5 2 3 6 9 12 12 11 11 11 13 14 14 16 18 20 23 25 27 30 31 31 31 31 31 31 31 32 33 32 33 34 36 40 43 44 44 41 38 36 32 28 29 30 30 32 33 29 25 23 20 19 25 32 34 34 35 36 35 31 28 25 21 18 16 13 10 7 4 2 2 4
1 1 1 2 1 1 1 2 2 3 3 1 2 1 4 8 10 8 7 9 10 11 11 12 14 16 17 18 21 23 25 28 30 31 32 32 31 31 31 31 31 32 33 34 36 37 39 42 44 42 41 39 35 32 28 26 27 28 29 31 30 25 23 20 19 21 28 33 34 36 38 37 33 27 24 21 19 17 15 13 9 6 3 1 3 5
2 2 3 3 3 2 4 5 6 6 4 3 3 9 13 13 9 5 6 9 11 12 12 13 16 17 18 20 23 25 28 30 31 31 32 32 32 31 31 31 32 31 33 35 37 38 40 40 38 37 38 36 33 29 25 24 25 28 30 29 27 24 22 18 18 25 31 33 36 39 39 35 29 24 22 20 19 17 14 11 7 4 2 2 3 4
5 4 1 2 2 4 4 7 9 10 10 11 14 18 16 10 7 6 11 14 14 15 15 16 18 19 20 22 25 27 30 31 32 32 32 32 33 33 32 32 32 32 34 36 38 38 37 34 32 33 35 34 31 27 23 22 25 28 29 27 25 24 21 18 21 29 36 38 39 38 35 31 28 26 23 21 19 15 13 10 7 3 2 3 3 3
5 3 0 2 3 4 4 4 6 10 15 19 20 18 12 9 9 13 15 16 16 18 19 20 21 22 24 25 27 29 31 32 33 34 33 33 33 33 32 32 34 34 35 37 38 36 32 30 31 32 33 33 30 23 20 22 24 26 26 25 24 23 20 21 27 36 41 41 38 35 32 31 29 27 23 20 17 13 11 8 5 3 3 2 1 3
3 2 2 3 4 4 4 7 13 20 22 21 17 13 10 10 12 14 15 16 19 22 23 24 25 26 26 27 28 29 30 31 33 34 34 33 33 33 33 34 35 35 37 38 36 32 29 30 32 31 31 30 25 20 20 21 22 23 24 25 24 22 22 28 36 42 43 41 39 37 33 29 26 24 22 18 15 13 11 6 3 3 4 4 3 4
8 5 4 3 4 5 6 9 13 16 17 15 12 12 12 13 14 16 18 21 25 27 28 29 29 28 28 28 27 26 27 30 31 30 31 32 33 34 34 35 36 37 38 37 33 31 31 31 31 30 28 24 20 19 20 18 16 17 18 22 25 24 27 35 42 44 42 40 38 35 30 26 24 22 19 16 14 13 10 4 4 6 6 6 6 7
6 4 4 4 4 5 6 9 10 7 8 14 17 16 17 17 18 21 25 27 28 30 30 30 30 29 27 26 25 25 27 29 28 28 29 31 32 33 34 35 36 37 37 35 33 32 31 29 29 28 25 19 16 18 14 9 6 6 14 23 27 30 36 43 44 41 37 33 31 30 29 25 22 20 19 17 16 12 7 4 6 8 8 7 7 10
7 6 6 5 5 7 12 18 18 11 11 21 25 23 22 22 22 25 29 30 30 30 28 26 27 28 27 26 25 25 27 29 28 27 29 30 31 32 33 34 34 35 35 34 32 29 28 28 27 24 19 16 16 13 8 5 2 9 21 29 33 38 43 44 41 37 33 30 30 30 27 23 22 22 20 18 14 9 5 6 8 9 8 8 10 11
Wind_Direction
86 18 276 221 228 232 232 205 183 174 145 131 114 118 116 112 297 289 274 301 14 102 320 256 232 294 274 281 289 293 328 295 204 192 198 203 203 203 202 201 200 201 202 198 195 196 198 200 203 204 206 208 209 208 208 207 207 212 211 202 188 180 182 186 184 180 178 170 151 140 135 119 106 107 105 100 104 259 263 262 264 266 266 263 255 248
57 232 252 227 221 219 222 189 146 117 93 94 113 102 19 226 271 276 259 306 349 113 300 303 24 300 274 266 285 306 321 294 236 191 193 200 204 206 205 205 204 203 201 197 195 196 198 200 202 204 206 210 211 210 210 210 207 210 210 202 193 187 184 184 181 178 175 159 135 127 128 122 112 107 95 86 83 67 58 263 260 255 257 257 252 253
2 269 257 234 198 160 128 107 105 99 87 80 100 87 346 269 283 299 291 310 357 95 287 325 20 287 277 271 279 287 262 265 274 246 217 208 209 211 209 208 205 201 199 197 196 198 199 201 202 205 209 212 214 214 213 210 208 211 208 198 196 194 186 179 177 178 173 151 131 125 130 140 134 114 95 86 81 73 72 69 62 242 249 247 242 241
311 252 249 187 135 130 97 82 99 100 89 86 110 116 276 268 301 290 297 318 347 47 242 35 19 297 296 302 279 272 260 267 280 277 262 227 218 221 216 211 206 200 199 199 199 200 200 201 203 207 210 211 212 215 214 211 211 211 206 201 199 194 186 180 178 179 173 154 143 142 154 165 163 150 121 90 82 80 75 72 70 64 45 273 246 234
253 255 244 113 129 159 164 124 122 140 221 295 176 157 197 231 211 221 278 329 345 4 43 78 17 319 314 317 286 300 321 288 280 283 279 251 227 225 220 215 211 205 203 202 201 201 201 204 208 211 211 211 212 215 218 218 215 210 206 204 199 194 189 185 183 182 177 167 160 160 175 191 195 183 167 106 86 81 77 77 72 67 67 62 61 216
260 272 264 155 183 167 168 215 199 170 212 307 248 197 191 193 203 233 336 16 27 347 345 52 10 293 313 318 273 296 343 303 290 291 279 273 254 225 219 217 214 211 208 206 205 204 205 209 211 211 210 211 215 218 220 221 216 208 208 205 197 194 192 189 189 188 184 179 174 170 180 198 205 182 177 146 101 88 80 82 75 72 73 74 80 87
260 299 347 212 213 166 174 231 227 168 139 311 248 200 174 143 133 151 130 84 92 263 299 49 152 253 316 317 265 286 318 296 299 300 278 280 274 244 226 222 216 214 211 208 208 209 210 212 211 212 213 215 218 219 219 219 214 208 209 206 198 196 196 195 194 193 190 187 183 178 182 206 219 186 186 173 117 104 90 88 84 80 77 77 83 86
261 320 345 357 149 144 175 232 219 149 120 236 235 160 142 130 142 166 147 136 192 234 316 15 112 210 306 276 264 297 312 292 292 288 274 273 273 261 243 230 220 216 212 209 209 211 213 215 215 216 218 218 218 218 218 218 214 209 208 206 201 198 199 199 199 197 195 192 190 185 193 215 223 208 209 215 156 124 104 98 95 91 88 85 86 88
254 288 275 198 115 149 198 216 189 145 131 239 210 138 145 149 148 144 126 151 229 74 305 323 48 150 280 270 289 344 307 281 277 275 273 270 272 269 257 241 225 219 215 211 212 213 215 218 220 222 222 221 218 217 219 219 215 210 208 206 203 200 201 202 203 202 198 197 196 194 199 212 215 212 219 226 215 170 134 120 110 107 103 97 95 95
244 234 224 156 137 203 226 219 172 160 188 229 154 106 63 67 93 98 113 143 54 62 244 270 242 157 273 277 300 3 272 261 264 269 266 273 280 281 276 258 230 217 215 213 215 216 218 221 223 224 223 221 218 217 218 217 213 212 209 206 205 204 204 205 207 205 200 199 201 202 205 209 211 214 220 225 223 217 206 191 163 144 128 116 114 111
279 261 206 162 191 210 206 197 170 174 175 129 103 75 37 30 43 48 74 104 64 331 252 246 198 139 308 281 255 204 222 233 262 285 286 292 299 301 295 273 232 214 212 212 214 216 218 220 222 222 221 219 217 215 215 215 214 213 211 209 208 208 207 208 210 208 204 203 204 206 208 211 214 216 223 225 220 221 221 218 215 197 173 155 139 132
325 309 211 238 234 198 159 133 37 36 86 93 83 74 71 338 11 21 356 42 96 263 260 242 195 117 107 268 254 248 262 253 246 273 290 299 306 313 316 293 235 215 212 209 211 214 215 217 219 220 220 220 217 215 215 214 214 215 215 213 212 210 210 211 211 210 208 208 208 209 211 215 219 220 227 229 222 223 225 230 235 226 205 196 182 159
320 245 264 305 258 172 138 121 357 3 32 83 95 83 86 334 6 348 300 331 211 249 257 228 194 112 228 251 265 271 279 282 275 289 309 314 319 334 347 333 244 215 211 208 207 210 212 215 219 220 221 222 222 220 218 216 216 216 217 218 216 214 213 213 214 212 211 211 211 212 213 216 221 225 229 231 226 224 228 236 242 239 229 222 216 195
329 302 325 341 279 192 147 154 227 303 67 137 143 121 126 117 64 283 269 286 257 265 276 236 211 285 282 273 278 275 287 319 353 14 34 36 23 22 27 27 229 210 211 209 207 208 211 215 219 220 221 225 227 226 222 219 219 219 218 220 220 218 216 216 216 215 213 213 214 216 216 217 221 226 230 231 227 225 230 238 245 247 243 239 235 222
120 308 291 204 272 259 134 157 169 160 159 199 174 129 141 152 152 227 227 201 248 275 303 292 227 185 215 272 293 292 319 24 50 57 60 58 52 49 47 50 66 140 206 211 211 210 213 216 218 219 221 225 229 230 227 223 222 221 221 221 221 220 218 217 219 218 216 215 216 218 219 219 221 226 230 230 228 227 232 240 248 251 250 251 250 243
151 252 256 261 289 97 122 186 162 123 91 261 162 108 152 181 157 177 195 177 187 267 308 288 238 218 204 260 326 337 10 42 56 59 57 53 55 57 50 47 57 68 98 193 217 217 218 218 218 220 222 226 230 232 230 227 224 224 224 223 224 223 221 220 221 220 219 217 218 220 221 221 222 225 228 228 227 228 231 240 250 255 258 260 259 259
141 265 282 323 334 11 124 214 164 134 157 241 92 154 229 184 127 118 255 288 85 99 275 265 257 291 338 17 346 2 27 20 24 47 50 43 51 57 50 44 51 58 64 70 81 219 228 225 223 222 222 226 230 232 233 232 229 229 228 226 225 225 224 223 223 223 221 219 220 223 224 224 224 227 230 229 227 228 231 238 245 251 256 257 258 262
148 256 292 348 243 296 82 79 41 30 116 119 154 221 232 56 86 109 127 6 46 177 275 297 226 280 334 299 324 3 28 15 2 22 40 41 45 49 47 46 49 53 59 62 61 57 45 263 237 230 227 227 228 231 234 233 231 231 232 230 228 226 226 226 225 225 224 222 223 226 227 227 228 230 234 232 229 229 231 236 241 244 248 251 254 259
124 234 289 267 204 288 34 80 33 348 22 101 158 176 110 108 315 17 101 120 228 233 282 307 276 256 225 214 312 19 27 14 358 0 23 37 39 38 43 48 49 51 54 53 53 54 52 45 23 258 240 237 235 234 234 233 232 231 232 233 232 231 231 229 228 226 226 226 226 229 231 232 232 235 236 233 228 228 230 234 238 241 244 246 248 251
57 151 274 283 238 298 4 64 193 315 353 26 66 40 39 135 157 129 120 161 192 214 249 302 313 277 233 202 151 153 181 137 45 23 25 28 32 34 39 45 48 48 48 45 43 44 44 43 39 32 355 272 255 247 241 236 234 233 233 234 234 234 234 232 231 229 227 228 229 231 235 235 236 238 238 234 230 230 230 232 236 240 241 242 244 245
42 99 252 294 316 314 347 176 175 176 292 18 33 21 5 48 106 77 12 126 141 173 195 233 283 271 257 211 157 163 180 172 142 87 57 43 49 45 40 47 51 49 46 42 38 35 32 31 31 30 26 14 325 273 256 247 240 237 236 235 235 236 235 235 234 232 231 230 230 231 234 236 237 239 239 235 234 233 231 232 234 237 238 239 240 243
64 120 199 291 328 306 251 247 203 176 165 150 135 151 155 135 112 92 295 299 105 158 177 160 225 268 270 252 186 167 179 197 176 112 63 44 51 54 54 61 64 59 54 47 40 33 24 21 23 24 23 23 15 334 285 264 254 248 244 241 238 237 237 238 238 236 234 232 232 233 235 235 237 239 239 235 235 236 233 232 234 234 235 235 237 239
143 104 115 261 264 227 250 267 266 190 121 114 109 135 132 122 113 130 209 253 302 215 162 126 181 270 276 278 257 216 218 226 78 55 48 45 48 56 64 72 74 72 68 62 54 47 36 26 21 22 22 20 16 8 345 307 281 268 260 253 246 242 240 240 238 238 237 236 235 236 236 237 236 238 239 235 234 237 235 233 234 235 234 234 234 236
98 72 60 299 294 305 298 295 323 24 84 89 43 46 97 116 125 144 177 175 176 233 158 124 230 261 272 286 304 325 339 2 19 23 33 44 48 55 60 66 71 71 70 67 61 52 43 33 23 20 20 18 14 7 354 334 315 295 279 268 259 251 245 242 240 239 239 239 239 239 237 238 238 238 239 235 234 238 239 236 236 236 235 234 234 235
331 292 91 47 334 335 340 347 344 338 42 95 81 16 65 99 99 92 103 98 166 229 167 169 234 239 239 296 346 356 356 359 7 21 37 45 46 50 52 55 59 61 59 59 55 47 37 31 30 25 20 18 17 10 355 337 318 302 290 280 272 262 253 247 243 242 242 241 242 241 238 237 238 239 238 235 233 237 239 238 237 236 234 232 233 236
243 198 143 137 199 231 267 272 258 279 323 106 135 122 83 99 110 132 110 95 178 245 169 168 226 258 257 333 343 338 4 360 359 30 48 45 45 48 48 49 51 51 51 49 48 44 37 32 29 23 17 14 11 6 359 349 334 314 296 285 278 272 265 256 248 245 244 243 243 245 241 236 237 240 239 234 232 235 237 236 236 234 231 231 233 236
135 120 185 165 186 204 205 225 222 178 189 252 210 161 171 165 122 118 108 134 188 213 233 207 205 260 278 306 326 325 23 5 341 22 36 32 36 37 38 40 38 39 39 35 33 29 23 19 13 8 6 0 354 349 345 342 339 333 319 304 286 272 266 261 254 249 246 243 245 249 245 237 233 238 240 236 230 232 234 232 233 231 230 232 233 237
105 358 286 176 212 228 210 225 226 179 194 231 226 185 179 187 154 129 161 212 173 159 260 247 195 227 255 237 284 293 338 210 266 354 13 20 28 26 28 27 21 20 17 11 9 5 2 0 355 352 349 345 342 338 333 329 328 328 324 321 310 284 266 259 253 249 247 245 245 248 247 239 232 231 236 236 229 227 228 225 226 227 227 230 233 237
118 290 267 192 264 264 237 243 237 206 209 214 208 197 183 187 188 183 209 211 162 181 246 240 193 214 230 187 242 260 212 189 205 221 345 14 22 21 24 18 11 9 3 358 357 353 351 347 342 339 335 332 330 326 324 323 319 318 315 314 315 306 288 268 256 251 249 248 246 246 246 245 239 230 229 229 223 219 220 218 217 219 221 226 229 232
107 277 267 238 294 293 275 262 246 233 238 226 219 214 195 191 199 203 219 207 184 214 243 231 210 232 232 202 224 253 223 216 226 319 15 22 16 12 14 9 6 5 357 353 351 347 344 340 335 331 325 322 322 320 319 317 315 314 311 305 299 297 298 287 270 259 253 251 250 247 245 247 244 234 225 221 215 210 210 210 209 212 217 221 223 224
49 280 308 22 341 295 291 289 262 233 235 243 245 230 197 190 205 219 230 201 194 237 258 251 240 256 249 217 211 241 13 354 355 359 10 13 1 2 10 8 6 1 353 348 342 337 336 333 328 324 321 318 317 318 318 314 312 310 307 300 291 288 287 284 280 272 262 257 254 249 246 244 240 233 223 214 207 205 205 204 204 209 213 214 214 216
64 271 327 38 328 276 280 301 291 278 264 259 247 216 189 191 201 211 217 196 186 204 228 236 249 252 240 211 196 252 337 347 332 324 340 347 342 356 7 1 355 348 343 339 333 331 328 325 322 319 316 315 313 313 315 313 310 309 306 297 286 282 283 280 276 273 268 263 258 253 249 242 234 228 221 212 207 207 206 203 205 208 208 206 206 211
161 187 223 130 263 270 249 254 288 311 286 269 240 191 190 205 208 194 214 222 197 164 155 198 229 221 186 157 166 218 255 273 275 273 284 285 273 353 349 343 338 333 331 328 324 322 319 316 316 314 311 311 310 309 310 310 308 306 305 299 288 282 281 281 280 277 269 260 255 255 253 246 235 224 219 216 212 208 204 203 207 207 203 201 205 213
174 178 202 171 212 265 255 222 350 279 245 254 232 182 188 203 202 193 204 217 203 167 154 186 196 179 161 154 166 195 215 232 255 260 253 236 210 308 337 337 335 329 326 323 318 315 312 310 308 307 307 307 306 305 304 303 302 301 300 297 292 284 279 278 280 282 274 259 253 252 251 248 240 229 221 217 212 207 204 203 204 200 197 201 210 220
211 187 214 184 190 258 279 104 227 248 240 250 281 193 198 192 172 166 203 228 207 202 190 160 154 167 181 187 188 196 214 244 278 273 245 223 216 284 327 331 333 331 326 323 319 315 312 310 306 305 304 302 301 301 299 298 297 295 293 293 291 284 280 278 275 277 277 265 253 245 241 239 236 226 217 211 206 204 201 196 192 190 194 206 217 225
215 193 209 194 189 250 114 161 212 250 290 310 323 358 0 18 101 99 304 282 259 213 183 170 195 209 203 207 210 218 243 269 284 271 235 221 233 281 315 322 327 327 324 323 320 316 313 311 307 306 304 301 299 298 297 297 297 293 289 289 290 285 278 275 271 269 272 265 253 246 240 237 232 221 209 203 202 199 193 187 184 187 198 210 219 227
192 173 204 223 215 198 188 214 245 307 317 298 299 355 19 250 260 213 244 277 285 250 164 163 224 263 252 241 244 251 259 272 280 260 229 231 258 288 307 315 319 319 318 317 315 313 313 310 307 306 304 302 299 298 298 297 296 294 290 286 286 284 277 272 268 263 263 261 256 251 245 240 234 218 203 197 195 189 184 183 185 193 204 214 221 231
176 176 187 202 220 181 195 253 287 291 273 261 277 298 295 287 268 225 178 303 298 278 228 191 220 254 247 247 256 256 269 302 287 269 278 289 292 298 307 312 315 314 313 312 310 309 309 308 307 306 304 303 300 298 299 297 295 295 291 286 285 282 276 271 267 261 257 255 254 251 246 239 228 210 196 191 185 178 174 184 197 204 212 220 229 240
9 22 149 167 235 155 173 231 242 225 241 247 267 289 320 331 311 244 146 278 278 277 267 235 240 255 245 249 259 250 331 337 284 285 310 314 307 305 308 310 312 312 310 310 311 310 309 309 308 305 304 303 300 298 298 296 294 292 289 286 283 278 273 269 266 262 254 251 251 248 240 229 214 198 188 184 182 178 178 193 203 209 217 226 237 247
13 8 58 159 242 236 173 227 243 217 247 266 275 299 328 341 342 38 138 255 270 299 295 250 241 261 267 272 275 246 274 284 278 296 310 312 309 308 309 309 310 310 310 310 311 311 311 310 308 305 303 301 299 299 297 295 292 289 286 284 279 273 269 266 266 264 255 249 248 241 228 216 202 190 185 183 183 181 183 193 201 211 222 230 237 243
358 344 17 126 230 250 216 244 271 262 263 271 285 310 328 342 8 104 189 250 281 314 316 284 263 286 300 296 289 278 281 289 296 303 307 309 308 307 307 307 307 307 307 308 310 311 313 311 309 306 303 301 300 300 297 293 289 284 282 280 274 269 265 265 267 264 251 244 239 228 217 208 196 187 183 181 178 176 182 194 203 209 212 215 220 233
347 335 341 53 79 268 193 212 287 290 268 276 297 323 350 10 68 202 277 292 301 314 319 306 293 301 307 301 294 290 293 300 303 303 304 306 305 304 304 304 304 304 306 308 311 314 314 313 311 308 305 303 302 300 297 291 283 278 277 274 270 267 264 263 264 257 244 238 230 217 207 201 192 183 175 169 169 175 183 191 191 181 173 181 209 243
272 310 306 258 209 346 16 314 303 272 263 326 343 360 29 22 276 283 300 305 310 317 317 305 300 303 301 297 295 294 297 301 299 298 301 303 304 304 303 302 304 305 307 310 314 316 316 314 311 308 306 305 302 298 294 285 275 271 271 268 268 267 263 260 259 249 237 232 224 209 196 188 182 173 163 161 169 177 175 164 150 140 134 148 237 271
223 194 252 251 230 65 184 220 217 204 208 23 36 312 301 295 287 291 304 306 311 318 311 299 300 302 296 292 293 295 296 296 295 296 299 300 302 304 302 301 304 305 307 311 313 315 315 313 309 306 305 304 301 296 291 282 273 271 270 268 268 268 262 258 254 241 230 224 213 196 181 174 169 161 155 161 172 171 158 141 125 120 134 193 263 273
235 201 204 229 246 219 208 236 254 257 269 309 301 293 295 285 268 272 298 298 299 302 298 292 294 297 293 290 291 292 292 291 291 294 297 298 300 301 300 300 302 303 306 309 311 313 314 310 306 303 302 301 299 295 291 283 277 275 273 271 269 266 261 258 248 231 216 203 191 180 172 167 162 157 155 158 159 154 147 145 139 131 160 225 245 266
278 286 242 190 265 292 273 255 260 275 293 310 315 312 301 268 243 288 300 292 292 295 294 292 291 293 294 293 290 288 287 287 289 292 296 298 299 299 300 299 300 303 306 307 310 312 311 306 302 300 299 299 299 295 290 285 281 279 278 275 268 261 256 249 233 216 202 188 177 169 163 158 155 154 152 148 143 137 136 144 153 166 202 215 234 294
295 311 325 219 272 303 293 266 283 299 303 308 313 311 288 255 275 300 295 290 297 301 298 296 295 296 296 293 289 287 287 288 290 292 295 297 298 299 300 299 300 303 305 307 310 310 306 302 301 299 298 299 298 294 292 289 280 273 272 270 261 252 245 233 213 198 189 181 168 158 156 155 150 148 147 144 143 146 148 146 147 157 165 174 245 339
286 348 337 244 235 237 246 271 289 293 294 297 298 289 272 270 286 289 284 291 302 302 298 297 296 294 294 292 290 289 288 289 291 292 294 296 297 298 298 298 300 303 305 307 308 306 302 301 299 298 299 297 292 291 297 293 277 265 263 258 250 241 229 215 198 184 175 166 156 152 154 151 143 140 141 140 144 155 163 160 125 103 101 90 80 54
264 287 283 250 262 277 272 274 281 287 293 292 279 270 277 286 287 285 290 297 300 299 297 297 295 294 293 293 292 291 290 290 292 294 296 296 296 298 300 300 302 303 304 305 305 303 301 299 297 297 297 292 288 295 300 295 282 270 252 235 228 219 202 188 177 165 157 152 148 148 146 141 138 142 144 144 150 159 165 157 98 95 98 91 76 49
252 258 253 256 283 279 262 269 274 276 286 285 279 278 286 292 291 293 297 299 299 299 299 297 296 295 293 291 294 296 294 294 296 299 299 298 300 302 302 302 302 302 302 303 304 303 300 297 295 294 289 286 298 306 299 288 284 239 186 179 182 178 166 157 150 143 140 141 142 142 140 138 142 148 152 158 164 167 162 119 97 102 101 85 58 39
226 234 239 238 253 255 263 277 284 280 275 282 288 290 292 296 297 296 297 299 301 302 301 298 297 297 296 296 297 297 295 295 298 300 301 302 304 304 302 301 301 300 301 302 302 301 299 295 292 287 281 291 309 304 265 241 220 160 152 147 146 145 143 140 137 136 137 140 143 143 142 142 148 153 158 166 172 167 137 108 108 110 100 74 51 39
Height
1486 1488 1490 1491 1489 1487 1486 1487 1487 1488 1489 1489 1490 1492 1494 1494 1491 1487 1484 1481 1482 1484 1485 1486 1484 1483 1482 1480 1479 1477 1476 1477 1479 1480 1481 1482 1483 1483 1484 1485 1486 1487 1488 1491 1494 1496 1498 1499 1501 1502 1503 1505 1506 1507 1508 1510 1511 1512 1513 1514 1515 1516 1517 1518 1519 1519 1520 1521 1523 1524 1525 1525 1526 1526 1526 1526 1526 1526 1526 1526 1526 1526 1526 1526 1527 1527
1486 1490 1490 1487 1486 1486 1486 1488 1488 1488 1489 1489 1489 1490 1493 1494 1490 1486 1484 1483 1482 1483 1486 1486 1483 1481 1481 1479 1478 1476 1476 1476 1477 1479 1479 1479 1481 1481 1482 1483 1484 1485 1488 1491 1494 1496 1497 1498 1499 1501 1502 1503 1504 1506 1507 1508 1510 1511 1513 1514 1515 1515 1517 1518 1519 1520 1520 1522 1523 1524 1525 1525 1526 1526 1526 1526 1526 1526 1526 1525 1525 1525 1525 1526 1526 1526
1490 1490 1485 1483 1486 1488 1488 1489 1488 1488 1488 1489 1490 1491 1492 1493 1491 1487 1483 1483 1483 1482 1484 1486 1483 1481 1479 1478 1478 1477 1476 1475 1475 1477 1478 1479 1480 1481 1481 1481 1483 1485 1488 1490 1492 1494 1495 1496 1498 1499 1501 1502 1503 1504 1505 1507 1509 1510 1512 1513 1514 1515 1516 1518 1519 1520 1521 1522 1523 1524 1525 1525 1526 1527 1527 1527 1526 1526 1525 1525 1525 1525 1525 1525 1525 1525
1493 1486 1481 1483 1486 1486 1487 1489 1488 1488 1488 1489 1490 1491 1492 1493 1493 1490 1485 1483 1484 1484 1485 1485 1484 1483 1480 1477 1476 1475 1475 1474 1474 1475 1476 1477 1478 1479 1480 1480 1481 1483 1485 1487 1489 1491 1493 1494 1496 1497 1499 1500 1502 1503 1504 1506 1507 1509 1511 1512 1513 1514 1515 1517 1518 1520 1521 1521 1522 1523 1524 1525 1526 1527 1527 1527 1527 1526 1526 1525 1525 1525 1524 1524 1524 1525
1489 1482 1480 1484 1485 1485 1486 1489 1489 1487 1488 1490 1489 1489 1490 1490 1491 1491 1488 1485 1484 1486 1486 1486 1487 1486 1482 1480 1476 1474 1476 1475 1474 1474 1473 1474 1475 1477 1478 1479 1480 1481 1482 1483 1485 1488 1490 1492 1493 1494 1496 1499 1500 1502 1502 1503 1505 1507 1509 1511 1512 1513 1515 1516 1518 1519 1520 1520 1521 1522 1524 1525 1526 1527 1527 1528 1527 1527 1526 1526 1525 1525 1524 1524 1524 1524
1485 1480 1481 1483 1483 1485 1485 1487 1487 1487 1489 1491 1488 1486 1485 1486 1488 1490 1490 1490 1490 1491 1489 1489 1495 1492 1485 1484 1479 1475 1477 1475 1474 1474 1472 1471 1472 1474 1476 1476 1478 1480 1480 1481 1482 1484 1487 1488 1490 1493 1495 1497 1498 1499 1501 1501 1503 1506 1509 1510 1511 1512 1514 1515 1517 1518 1519 1520 1520 1521 1523 1524 1525 1526 1527 1528 1527 1527 1527 1526 1526 1525 1525 1525 1524 1524
1483 1479 1479 1481 1483 1485 1486 1486 1486 1486 1491 1492 1486 1483 1485 1486 1489 1490 1491 1492 1495 1496 1492 1492 1497 1497 1489 1483 1479 1477 1477 1475 1473 1473 1471 1469 1470 1471 1472 1472 1474 1475 1478 1480 1482 1483 1485 1486 1488 1490 1492 1494 1495 1497 1500 1501 1503 1506 1507 1509 1510 1511 1512 1514 1515 1517 1518 1519 1520 1521 1522 1523 1525 1526 1527 1527 1528 1527 1527 1527 1526 1526 1526 1525 1525 1525
1482 1479 1479 1481 1483 1485 1487 1486 1484 1484 1489 1489 1483 1482 1485 1486 1487 1489 1490 1492 1494 1494 1494 1494 1495 1499 1496 1485 1478 1479 1479 1475 1473 1472 1470 1468 1467 1467 1467 1468 1469 1470 1473 1476 1479 1481 1483 1484 1485 1487 1489 1490 1493 1496 1499 1501 1503 1505 1506 1508 1510 1510 1512 1513 1514 1516 1517 1518 1519 1520 1521 1522 1524 1525 1526 1527 1527 1527 1527 1527 1527 1527 1527 1526 1526 1526
1481 1479 1479 1480 1483 1486 1484 1480 1480 1482 1484 1483 1481 1483 1484 1484 1486 1488 1489 1492 1496 1496 1495 1495 1496 1502 1501 1486 1480 1483 1481 1477 1473 1470 1469 1466 1463 1462 1463 1464 1465 1467 1469 1472 1475 1477 1479 1481 1482 1484 1486 1488 1492 1494 1497 1499 1502 1504 1506 1508 1509 1510 1511 1512 1514 1515 1516 1517 1518 1519 1520 1522 1523 1524 1525 1526 1527 1527 1527 1527 1527 1527 1527 1527 1527 1527
1480 1478 1477 1479 1482 1482 1478 1476 1478 1479 1479 1479 1481 1484 1484 1486 1489 1490 1491 1492 1496 1500 1495 1494 1496 1502 1500 1486 1481 1485 1481 1477 1473 1468 1467 1464 1460 1459 1458 1459 1461 1464 1467 1469 1471 1473 1476 1478 1479 1482 1485 1487 1490 1493 1495 1498 1501 1504 1505 1506 1508 1509 1510 1511 1513 1514 1515 1516 1517 1518 1519 1521 1522 1523 1524 1525 1525 1526 1526 1527 1528 1528 1528 1527 1527 1527
1477 1476 1476 1477 1477 1475 1473 1475 1477 1476 1477 1478 1481 1483 1484 1489 1489 1491 1495 1494 1497 1501 1496 1495 1497 1498 1498 1486 1480 1482 1477 1473 1471 1468 1466 1461 1457 1456 1455 1456 1458 1460 1463 1466 1468 1470 1474 1477 1479 1481 1484 1486 1489 1492 1495 1498 1500 1502 1503 1505 1507 1508 1509 1510 1512 1513 1514 1515 1515 1517 1518 1519 1521 1522 1523 1524 1524 1525 1526 1526 1527 1528 1528 1528 1527 1527
1478 1476 1475 1473 1471 1472 1472 1474 1477 1477 1478 1479 1481 1484 1487 1492 1492 1493 1496 1495 1501 1502 1495 1497 1496 1495 1497 1486 1476 1477 1474 1473 1473 1470 1466 1461 1456 1455 1454 1455 1457 1458 1460 1463 1466 1469 1473 1476 1478 1480 1482 1485 1488 1490 1493 1496 1498 1500 1502 1504 1505 1506 1508 1509 1511 1512 1513 1513 1514 1516 1517 1518 1520 1521 1522 1523 1523 1524 1525 1526 1527 1527 1527 1527 1527 1528
1477 1473 1474 1472 1469 1470 1472 1476 1480 1479 1480 1481 1482 1486 1493 1499 1502 1501 1500 1502 1504 1500 1496 1499 1497 1495 1493 1481 1474 1475 1473 1472 1473 1470 1468 1464 1459 1455 1453 1455 1458 1460 1460 1461 1464 1467 1471 1474 1475 1478 1480 1482 1485 1487 1490 1493 1495 1498 1499 1501 1502 1504 1506 1507 1509 1511 1511 1512 1513 1514 1516 1517 1519 1520 1521 1522 1523 1524 1524 1525 1526 1526 1527 1527 1527 1527
1479 1475 1473 1472 1470 1468 1470 1476 1481 1481 1481 1481 1480 1484 1493 1503 1510 1510 1509 1512 1508 1497 1497 1501 1498 1494 1488 1480 1478 1477 1473 1472 1471 1470 1467 1464 1461 1458 1456 1456 1457 1460 1462 1463 1464 1466 1469 1471 1473 1476 1478 1480 1482 1484 1487 1490 1492 1495 1497 1498 1500 1501 1504 1505 1507 1509 1510 1511 1512 1513 1514 1516 1517 1518 1520 1521 1522 1523 1524 1524 1525 1525 1526 1526 1527 1527
1486 1483 1474 1471 1471 1469 1469 1472 1475 1477 1479 1481 1480 1482 1487 1493 1501 1505 1504 1505 1501 1497 1498 1499 1495 1491 1486 1482 1482 1478 1475 1473 1470 1468 1465 1462 1462 1461 1459 1459 1458 1460 1462 1465 1467 1468 1469 1470 1472 1474 1476 1478 1480 1482 1485 1487 1489 1492 1493 1495 1497 1499 1501 1503 1504 1506 1508 1510 1511 1512 1513 1514 1515 1516 1518 1520 1521 1521 1522 1523 1524 1524 1525 1526 1526 1526
1488 1483 1472 1470 1470 1468 1469 1469 1469 1473 1478 1483 1482 1482 1484 1483 1486 1496 1502 1501 1499 1498 1498 1496 1492 1488 1484 1483 1481 1478 1476 1473 1471 1468 1465 1465 1464 1462 1462 1462 1461 1462 1463 1465 1468 1469 1470 1471 1472 1474 1475 1477 1479 1480 1482 1485 1487 1489 1490 1493 1494 1496 1499 1500 1502 1504 1506 1508 1510 1511 1511 1512 1513 1514 1516 1517 1519 1520 1521 1522 1522 1523 1524 1524 1525 1525
1486 1481 1472 1471 1471 1468 1469 1469 1467 1470 1475 1482 1483 1481 1482 1481 1479 1491 1504 1506 1505 1502 1500 1500 1493 1484 1484 1483 1480 1479 1476 1474 1473 1468 1467 1469 1467 1464 1466 1466 1465 1465 1465 1466 1468 1469 1471 1472 1473 1474 1475 1477 1477 1478 1480 1482 1484 1486 1487 1490 1492 1494 1497 1499 1500 1502 1504 1506 1507 1509 1510 1511 1512 1513 1514 1515 1517 1518 1519 1520 1521 1522 1522 1523 1524 1524
1482 1480 1473 1472 1471 1468 1469 1469 1467 1468 1470 1477 1482 1480 1481 1483 1481 1486 1496 1504 1508 1507 1502 1500 1495 1488 1488 1487 1483 1481 1479 1477 1477 1473 1471 1471 1468 1468 1469 1469 1468 1466 1465 1467 1468 1469 1471 1471 1473 1474 1475 1476 1477 1478 1479 1480 1482 1484 1485 1487 1490 1492 1494 1496 1498 1500 1502 1504 1505 1507 1509 1510 1511 1511 1513 1514 1515 1517 1518 1518 1519 1520 1521 1521 1522 1523
1480 1481 1476 1473 1473 1470 1468 1470 1471 1472 1471 1472 1476 1478 1480 1485 1487 1489 1495 1500 1505 1509 1504 1499 1499 1495 1489 1487 1484 1483 1482 1480 1481 1479 1476 1474 1472 1473 1473 1471 1470 1468 1466 1467 1468 1469 1471 1471 1473 1474 1475 1476 1477 1478 1479 1481 1483 1484 1485 1487 1488 1490 1492 1494 1496 1498 1500 1502 1504 1506 1507 1508 1509 1510 1512 1513 1514 1515 1516 1517 1518 1518 1519 1520 1521 1522
1481 1483 1479 1473 1473 1473 1470 1472 1476 1476 1475 1473 1474 1478 1480 1484 1489 1492 1495 1496 1497 1505 1506 1500 1498 1492 1484 1484 1483 1482 1482 1482 1481 1481 1480 1478 1477 1476 1474 1472 1471 1469 1468 1468 1469 1470 1471 1472 1473 1473 1475 1476 1477 1478 1479 1480 1482 1484 1485 1486 1487 1489 1491 1493 1494 1496 1498 1500 1501 1504 1505 1507 1508 1509 1510 1511 1512 1513 1513 1515 1516 1517 1518 1518 1519 1520
1481 1485 1484 1476 1474 1476 1475 1476 1478 1478 1478 1476 1477 1481 1483 1485 1490 1492 1494 1495 1494 1499 1504 1503 1498 1489 1483 1484 1482 1481 1482 1481 1480 1480 1479 1480 1480 1478 1478 1475 1473 1471 1470 1469 1469 1470 1471 1473 1473 1473 1474 1475 1476 1478 1479 1480 1482 1483 1484 1485 1487 1488 1489 1490 1492 1494 1496 1497 1498 1500 1502 1504 1505 1507 1509 1510 1511 1511 1512 1513 1514 1515 1516 1516 1517 1519
1480 1484 1485 1481 1478 1479 1480 1478 1477 1477 1478 1477 1477 1482 1484 1485 1488 1492 1496 1498 1496 1495 1500 1503 1499 1489 1485 1486 1484 1482 1483 1481 1480 1479 1478 1478 1479 1480 1480 1478 1476 1475 1473 1472 1471 1472 1473 1474 1474 1475 1476 1476 1476 1477 1478 1480 1481 1482 1483 1484 1486 1487 1488 1488 1490 1491 1493 1495 1496 1497 1499 1501 1503 1504 1506 1508 1509 1510 1510 1511 1512 1513 1514 1514 1516 1517
1480 1483 1484 1483 1481 1482 1482 1479 1478 1478 1477 1478 1480 1483 1485 1485 1486 1491 1495 1496 1496 1497 1500 1503 1500 1492 1488 1488 1485 1483 1482 1480 1480 1479 1477 1478 1477 1478 1479 1479 1478 1477 1475 1475 1474 1474 1475 1475 1476 1477 1476 1477 1477 1477 1477 1479 1480 1482 1482 1483 1484 1485 1486 1486 1488 1490 1492 1494 1496 1497 1497 1498 1500 1501 1503 1505 1507 1509 1509 1510 1511 1511 1512 1513 1514 1515
1481 1483 1485 1485 1483 1481 1479 1477 1479 1479 1478 1480 1484 1485 1486 1486 1486 1488 1491 1493 1495 1495 1496 1500 1500 1494 1490 1488 1485 1484 1482 1480 1479 1478 1477 1478 1477 1477 1477 1477 1477 1477 1476 1476 1475 1475 1476 1476 1476 1476 1476 1477 1477 1476 1477 1478 1479 1480 1480 1481 1482 1483 1484 1484 1485 1488 1490 1491 1493 1495 1496 1497 1498 1499 1501 1503 1505 1507 1508 1509 1510 1511 1511 1512 1513 1514
1482 1485 1487 1490 1491 1489 1485 1483 1482 1479 1479 1484 1488 1488 1486 1486 1487 1490 1493 1495 1496 1495 1494 1494 1493 1489 1489 1489 1486 1484 1483 1481 1480 1480 1478 1478 1478 1477 1477 1476 1476 1476 1475 1475 1475 1475 1475 1475 1476 1476 1476 1477 1477 1477 1477 1477 1478 1478 1478 1479 1479 1480 1481 1482 1483 1486 1487 1487 1488 1490 1492 1494 1496 1498 1499 1501 1504 1506 1507 1508 1509 1510 1511 1512 1512 1513
1483 1486 1487 1489 1495 1497 1494 1490 1485 1481 1482 1486 1489 1489 1487 1486 1487 1488 1491 1494 1496 1498 1496 1492 1488 1485 1488 1490 1487 1485 1486 1484 1482 1482 1480 1479 1479 1479 1479 1478 1477 1476 1476 1477 1477 1477 1477 1477 1477 1477 1477 1477 1477 1477 1477 1477 1477 1477 1476 1476 1476 1477 1479 1479 1481 1484 1485 1485 1485 1485 1487 1490 1493 1496 1498 1499 1501 1503 1505 1506 1507 1508 1509 1510 1511 1511
1484 1487 1486 1484 1487 1489 1487 1484 1483 1482 1483 1484 1486 1488 1488 1488 1487 1487 1491 1494 1493 1495 1494 1489 1486 1485 1485 1488 1487 1485 1487 1486 1483 1483 1481 1480 1480 1479 1479 1478 1477 1477 1477 1478 1478 1478 1478 1477 1477 1477 1477 1477 1477 1477 1477 1477 1477 1476 1476 1475 1475 1475 1476 1477 1479 1480 1481 1482 1482 1482 1483 1485 1488 1491 1495 1497 1498 1500 1502 1503 1505 1506 1507 1508 1508 1509
1486 1487 1486 1485 1483 1482 1482 1480 1480 1481 1481 1480 1482 1486 1487 1487 1486 1487 1490 1491 1491 1494 1491 1486 1485 1484 1483 1485 1485 1485 1487 1487 1484 1483 1481 1481 1481 1479 1479 1478 1477 1477 1477 1477 1477 1476 1476 1476 1476 1476 1476 1476 1476 1476 1476 1476 1476 1476 1475 1475 1474 1474 1474 1475 1476 1476 1477 1478 1479 1479 1479 1480 1482 1484 1488 1492 1494 1496 1497 1499 1501 1502 1504 1504 1505 1506
1489 1488 1487 1487 1483 1480 1482 1482 1481 1481 1480 1480 1481 1483 1485 1486 1486 1487 1488 1488 1490 1491 1486 1482 1482 1481 1482 1485 1485 1484 1486 1485 1484 1483 1482 1482 1481 1480 1479 1478 1477 1477 1476 1476 1475 1475 1475 1474 1474 1474 1474 1475 1475 1474 1474 1474 1474 1474 1474 1473 1473 1472 1472 1472 1473 1474 1474 1474 1475 1476 1477 1479 1480 1480 1481 1484 1488 1490 1492 1494 1496 1498 1500 1501 1502 1503
1489 1488 1489 1489 1485 1482 1482 1482 1483 1482 1480 1480 1480 1480 1482 1484 1483 1484 1485 1486 1487 1485 1479 1481 1485 1482 1482 1485 1484 1483 1484 1484 1483 1483 1482 1482 1481 1479 1479 1478 1477 1477 1476 1475 1475 1475 1474 1474 1474 1474 1473 1473 1473 1473 1472 1472 1472 1472 1472 1472 1471 1470 1470 1469 1469 1470 1471 1470 1471 1473 1474 1476 1476 1476 1476 1479 1482 1485 1486 1489 1492 1494 1496 1497 1499 1500
1489 1490 1489 1487 1487 1485 1481 1480 1482 1483 1482 1481 1479 1479 1481 1482 1483 1484 1484 1485 1486 1483 1480 1483 1486 1483 1482 1483 1483 1483 1483 1482 1481 1481 1480 1480 1479 1478 1478 1477 1477 1477 1476 1475 1475 1474 1474 1474 1473 1472 1472 1471 1471 1471 1470 1470 1470 1470 1470 1469 1469 1468 1467 1466 1466 1467 1467 1467 1468 1469 1470 1471 1470 1471 1473 1476 1478 1480 1481 1483 1486 1489 1491 1493 1495 1497
1490 1492 1489 1488 1491 1487 1481 1480 1480 1480 1481 1481 1479 1480 1480 1479 1479 1480 1480 1480 1480 1479 1479 1482 1481 1480 1481 1482 1482 1482 1482 1481 1481 1480 1479 1479 1478 1478 1478 1477 1477 1476 1475 1475 1474 1473 1472 1472 1471 1471 1470 1469 1469 1468 1468 1468 1467 1468 1467 1466 1466 1465 1464 1464 1463 1464 1464 1464 1465 1466 1467 1467 1468 1471 1474 1475 1474 1475 1477 1478 1480 1484 1487 1490 1492 1493
1488 1489 1487 1490 1493 1487 1481 1481 1480 1480 1483 1478 1473 1474 1475 1473 1475 1476 1476 1476 1475 1474 1476 1476 1474 1474 1478 1481 1482 1482 1482 1481 1480 1479 1478 1478 1477 1477 1477 1476 1476 1475 1474 1473 1472 1471 1470 1470 1470 1470 1469 1468 1467 1466 1466 1465 1464 1464 1464 1463 1462 1461 1461 1460 1460 1460 1460 1461 1461 1462 1464 1464 1466 1470 1473 1474 1474 1473 1473 1475 1477 1480 1484 1487 1489 1490
1486 1486 1487 1489 1489 1484 1480 1481 1484 1487 1484 1472 1464 1466 1467 1467 1469 1472 1471 1471 1472 1473 1474 1473 1473 1475 1477 1479 1479 1480 1480 1479 1478 1477 1477 1476 1476 1476 1476 1475 1474 1473 1472 1471 1470 1469 1469 1468 1468 1468 1467 1466 1465 1464 1463 1463 1462 1461 1460 1459 1458 1457 1457 1457 1457 1457 1456 1457 1458 1459 1460 1461 1463 1465 1467 1470 1472 1472 1472 1473 1476 1480 1483 1486 1488 1488
1486 1487 1488 1487 1486 1485 1482 1484 1489 1487 1475 1464 1463 1466 1466 1465 1465 1467 1468 1469 1471 1473 1473 1473 1474 1475 1475 1475 1477 1477 1477 1477 1476 1475 1474 1474 1474 1474 1473 1473 1472 1471 1470 1469 1468 1468 1467 1466 1465 1465 1464 1464 1463 1462 1461 1460 1458 1457 1456 1455 1455 1454 1453 1453 1453 1453 1453 1453 1455 1456 1457 1458 1460 1462 1463 1465 1468 1470 1471 1471 1474 1479 1482 1485 1486 1487
1485 1486 1487 1486 1486 1487 1485 1486 1488 1480 1467 1463 1466 1467 1468 1468 1467 1468 1469 1470 1472 1473 1472 1472 1473 1474 1474 1475 1475 1476 1476 1476 1474 1473 1472 1471 1471 1471 1470 1470 1469 1469 1468 1467 1466 1465 1464 1464 1463 1462 1461 1460 1460 1459 1458 1457 1456 1454 1452 1451 1451 1451 1450 1450 1449 1450 1450 1450 1451 1452 1453 1455 1456 1459 1462 1464 1467 1470 1472 1472 1474 1478 1481 1483 1484 1485
1483 1484 1485 1485 1484 1484 1483 1483 1481 1475 1470 1468 1468 1471 1474 1474 1473 1472 1470 1470 1473 1474 1473 1473 1473 1474 1474 1473 1474 1474 1475 1474 1473 1471 1470 1469 1469 1468 1467 1467 1466 1466 1465 1464 1463 1462 1461 1461 1460 1459 1458 1457 1456 1455 1455 1454 1452 1450 1448 1448 1447 1447 1447 1446 1445 1446 1447 1447 1448 1449 1450 1451 1452 1456 1460 1462 1465 1469 1471 1473 1475 1477 1479 1481 1482 1483
1480 1481 1482 1483 1483 1481 1482 1483 1482 1479 1477 1474 1474 1476 1476 1475 1475 1474 1472 1473 1474 1474 1473 1474 1473 1473 1473 1472 1472 1473 1472 1472 1470 1469 1468 1468 1467 1466 1465 1464 1463 1463 1462 1461 1460 1459 1458 1457 1456 1455 1454 1453 1452 1452 1451 1450 1448 1446 1444 1444 1443 1443 1443 1442 1441 1442 1444 1444 1445 1445 1446 1448 1450 1453 1456 1461 1465 1467 1470 1473 1476 1477 1479 1480 1481 1481
1479 1480 1480 1481 1482 1481 1481 1483 1482 1479 1477 1478 1478 1476 1474 1474 1473 1469 1470 1475 1476 1474 1474 1474 1473 1472 1471 1471 1471 1471 1471 1470 1467 1465 1466 1466 1465 1464 1463 1461 1460 1459 1458 1457 1456 1455 1454 1454 1452 1451 1450 1449 1447 1448 1447 1445 1443 1441 1440 1440 1440 1439 1438 1438 1438 1439 1440 1442 1442 1443 1443 1445 1448 1450 1452 1456 1461 1464 1468 1472 1475 1476 1478 1479 1479 1480
1480 1480 1481 1482 1482 1481 1481 1482 1479 1476 1477 1479 1478 1475 1474 1473 1471 1469 1473 1477 1476 1474 1474 1473 1472 1471 1470 1469 1469 1469 1469 1467 1464 1463 1464 1463 1462 1461 1460 1458 1457 1456 1454 1453 1453 1452 1450 1450 1448 1446 1445 1444 1442 1443 1443 1441 1439 1437 1435 1435 1436 1434 1434 1435 1435 1436 1438 1439 1440 1441 1442 1444 1447 1449 1449 1454 1459 1463 1467 1470 1473 1475 1476 1477 1477 1478
1483 1483 1483 1483 1483 1482 1483 1483 1480 1478 1479 1478 1476 1475 1473 1471 1472 1476 1478 1476 1474 1473 1473 1472 1471 1470 1468 1468 1467 1466 1465 1463 1461 1460 1461 1461 1459 1457 1456 1455 1454 1452 1451 1450 1449 1448 1447 1445 1443 1441 1439 1438 1437 1437 1437 1436 1434 1431 1431 1431 1430 1430 1430 1432 1433 1434 1436 1438 1439 1439 1441 1443 1445 1446 1448 1453 1459 1463 1466 1469 1471 1473 1475 1475 1475 1476
1488 1487 1486 1485 1485 1485 1485 1485 1482 1480 1479 1477 1475 1475 1474 1474 1478 1479 1476 1473 1473 1472 1471 1470 1469 1468 1467 1466 1465 1463 1462 1461 1459 1457 1457 1458 1456 1454 1453 1452 1450 1449 1448 1447 1446 1445 1443 1440 1438 1436 1433 1433 1432 1431 1431 1430 1428 1426 1426 1426 1425 1425 1427 1429 1430 1431 1433 1436 1436 1437 1439 1441 1443 1445 1448 1453 1458 1461 1465 1468 1470 1471 1472 1473 1473 1474
1489 1490 1490 1487 1485 1486 1486 1486 1485 1482 1478 1476 1476 1476 1476 1478 1479 1476 1472 1472 1472 1471 1470 1470 1468 1467 1466 1465 1463 1462 1460 1459 1457 1455 1454 1453 1453 1452 1450 1448 1447 1445 1444 1442 1441 1440 1438 1435 1432 1430 1428 1427 1426 1426 1425 1424 1422 1421 1422 1420 1420 1422 1425 1426 1427 1428 1430 1432 1433 1435 1437 1438 1440 1444 1448 1453 1458 1461 1464 1466 1468 1469 1470 1471 1471 1472
1488 1489 1491 1488 1486 1487 1488 1485 1480 1477 1476 1475 1476 1477 1477 1477 1475 1473 1472 1472 1471 1470 1470 1469 1467 1467 1466 1464 1462 1460 1459 1457 1455 1453 1451 1450 1449 1448 1446 1445 1444 1442 1440 1438 1437 1436 1434 1431 1427 1425 1423 1422 1421 1421 1420 1419 1418 1417 1416 1416 1417 1419 1421 1422 1424 1425 1427 1429 1431 1432 1434 1436 1440 1444 1448 1453 1458 1462 1464 1465 1466 1467 1468 1469 1470 1471
1487 1486 1488 1488 1485 1484 1483 1480 1475 1474 1474 1474 1475 1475 1474 1473 1472 1472 1472 1471 1470 1469 1468 1467 1466 1465 1464 1463 1461 1459 1457 1455 1453 1452 1449 1447 1445 1444 1443 1441 1440 1439 1437 1435 1433 1432 1430 1427 1423 1421 1419 1418 1418 1417 1416 1415 1414 1412 1411 1412 1414 1416 1417 1419 1421 1423 1425 1427 1429 1430 1432 1436 1440 1445 1449 1453 1458 1461 1462 1463 1464 1465 1467 1467 1468 1468
1486 1485 1486 1485 1483 1481 1478 1475 1474 1474 1473 1473 1473 1472 1471 1471 1470 1470 1470 1468 1468 1467 1465 1464 1463 1462 1461 1461 1459 1456 1455 1453 1450 1449 1447 1444 1441 1440 1439 1438 1436 1435 1434 1431 1430 1428 1426 1423 1420 1418 1415 1414 1414 1413 1412 1411 1410 1408 1407 1408 1410 1412 1414 1416 1418 1420 1422 1425 1428 1431 1434 1437 1441 1446 1450 1454 1457 1460 1461 1462 1464 1465 1465 1466 1466 1466
1486 1485 1485 1484 1484 1483 1479 1474 1472 1473 1472 1472 1471 1470 1469 1469 1469 1468 1468 1466 1465 1464 1463 1462 1461 1460 1459 1458 1455 1453 1451 1449 1447 1445 1443 1441 1438 1436 1435 1434 1432 1431 1430 1428 1426 1424 1422 1419 1417 1415 1413 1411 1410 1409 1408 1407 1405 1404 1403 1404 1405 1407 1410 1413 1414 1417 1419 1423 1427 1433 1438 1441 1443 1447 1450 1453 1456 1458 1461 1462 1463 1463 1464 1464 1464 1464
1486 1485 1485 1482 1481 1480 1478 1474 1472 1471 1470 1470 1469 1468 1467 1468 1467 1466 1466 1465 1463 1462 1461 1460 1459 1457 1456 1454 1452 1450 1448 1446 1444 1442 1439 1437 1435 1433 1431 1430 1428 1427 1425 1423 1422 1420 1418 1416 1414 1412 1410 1408 1407 1407 1406 1404 1401 1400 1399 1399 1400 1403 1406 1408 1411 1414 1418 1422 1427 1433 1439 1442 1445 1447 1450 1453 1456 1458 1460 1461 1462 1462 1462 1462 1462 1462
1486 1485 1483 1480 1479 1478 1476 1473 1471 1470 1468 1467 1467 1466 1466 1466 1465 1464 1463 1462 1461 1459 1458 1457 1455 1454 1452 1450 1448 1447 1444 1442 1440 1439 1436 1433 1431 1429 1428 1426 1424 1422 1420 1419 1417 1416 1414 1412 1410 1408 1407 1405 1405 1405 1404 1401 1399 1397 1395 1395 1396 1398 1402 1405 1408 1414 1420 1425 1429 1434 1438 1442 1444 1447 1450 1453 1455 1458 1459 1460 1461 1461 1460 1460 1460 1460
1484 1483 1480 1480 1481 1478 1474 1470 1469 1470 1467 1464 1464 1464 1464 1464 1463 1461 1459 1458 1457 1456 1454 1453 1451 1449 1448 1446 1445 1443 1440 1438 1436 1435 1433 1430 1427 1426 1424 1422 1420 1418 1416 1414 1413 1411 1410 1408 1406 1405 1404 1403 1403 1403 1402 1401 1399 1396 1394 1394 1395 1396 1400 1405 1410 1416 1422 1427 1432 1435 1438 1441 1444 1447 1450 1453 1455 1457 1459 1459 1459 1459 1459 1459 1459 1459
1480 1479 1477 1478 1477 1473 1469 1467 1467 1468 1464 1460 1460 1461 1461 1461 1460 1457 1455 1454 1453 1452 1451 1449 1446 1444 1443 1442 1442 1440 1437 1434 1433 1431 1429 1426 1424 1422 1420 1418 1416 1413 1411 1410 1408 1407 1405 1404 1402 1402 1402 1402 1402 1402 1402 1402 1401 1399 1398 1399 1400 1401 1404 1409 1414 1419 1424 1429 1433 1436 1439 1442 1444 1448 1451 1453 1455 1457 1457 1458 1457 1457 1457 1458 1458 1458